Location: Crescent
(42.8242°N, 73.7329°W)
Time: 21:33:52
(UTC+00:00)

Vanguard 2 Rocket - Pass Details

Date: 17 February 2026
Orbit: 553 x 3287 km, 32.9° (Epoch: 7 March)

Event Time Altitude Azimuth Distance (km) Brightness Sun altitude
Rises 14:17:23 0° 192° (SSW) 7,092 11.9 22.7°
Reaches altitude 10° 14:24:25 10° 177° (S) 6,212 12.0 23.7°
Maximum altitude 14:36:10 19° 140° (SE) 5,322 13.7 25.1°
Drops below altitude 10° 14:46:45 10° 103° (ESE) 5,595 11.9 26.4°
Sets 14:52:23 0° 88° (E) 6,201 11.6 27.0°
